| DS18B20 | SHTC3 | ||||||
|---|---|---|---|---|---|---|---|
| ID | Date d/m/Y & Time | data1 สูง | data2 ต่ำ | data3 นอก | temp pcb | hum pcb | Time |
| 4021 | 19/03/2026 20:20:58 | 28.3  | 28.3  | 27.9  | 28.4  | 72.3  | 20:20 |
| 4020 | 19/03/2026 20:16:17 | 28.4  | 28.4  | 27.9  | 28.5  | 72.3  | 20:16 |
| 4019 | 19/03/2026 20:11:35 | 28.3  | 28.4  | 27.9  | 28.5  | 72.3  | 20:11 |
| 4018 | 19/03/2026 20:06:54 | 28.4  | 28.4  | 27.9  | 28.5  | 72.1  | 20:06 |
| 4017 | 19/03/2026 20:02:12 | 28.4  | 28.5  | 27.9  | 28.4  | 71.8  | 20:02 |
| 4016 | 19/03/2026 19:57:31 | 28.5  | 28.4  | 27.9  | 28.4  | 71.8  | 19:57 |
| 4015 | 19/03/2026 19:52:49 | 28.5  | 28.5  | 28.0  | 28.7  | 71.7  | 19:52 |
| 4014 | 19/03/2026 19:48:07 | 28.6  | 28.5  | 28.0  | 28.5  | 71.7  | 19:48 |
| 4013 | 19/03/2026 19:43:25 | 28.6  | 28.6  | 28.0  | 28.7  | 71.5  | 19:43 |
| 4012 | 19/03/2026 19:38:44 | 28.7  | 28.6  | 28.0  | 28.7  | 71.0  | 19:38 |
| 4011 | 19/03/2026 19:34:02 | 28.7  | 28.7  | 28.0  | 28.9  | 70.8  | 19:34 |
| 4010 | 19/03/2026 19:29:18 | 28.8  | 28.7  | 28.1  | 28.8  | 70.9  | 19:29 |
| 4009 | 19/03/2026 19:24:36 | 28.8  | 28.8  | 28.1  | 28.9  | 71.0  | 19:24 |
| 4008 | 19/03/2026 19:19:54 | 28.9  | 28.8  | 28.1  | 29.0  | 70.7  | 19:19 |
| 4007 | 19/03/2026 19:15:13 | 28.9  | 28.9  | 28.0  | 29.1  | 70.6  | 19:15 |
| 4006 | 19/03/2026 19:10:32 | 29.0  | 28.9  | 28.1  | 29.1  | 70.6  | 19:10 |
| 4005 | 19/03/2026 19:05:50 | 29.0  | 28.9  | 28.2  | 29.1  | 70.4  | 19:05 |
| 4004 | 19/03/2026 19:01:09 | 29.2  | 29.0  | 28.3  | 29.2  | 70.0  | 19:01 |
| 4003 | 19/03/2026 18:56:27 | 29.3  | 29.1  | 28.2  | 29.5  | 69.7  | 18:56 |
| 4002 | 19/03/2026 18:51:45 | 29.4  | 29.1  | 28.2  | 29.6  | 69.2  | 18:51 |
| 4001 | 19/03/2026 18:47:03 | 29.6  | 29.3  | 28.3  | 29.9  | 68.7  | 18:47 |
| 4000 | 19/03/2026 18:42:21 | 30.1  | 29.8  | 28.3  | 30.1  | 68.6  | 18:42 |
| 3999 | 19/03/2026 18:37:40 | 30.1  | 30.1  | 28.4  | 30.2  | 68.9  | 18:37 |
| 3998 | 19/03/2026 18:32:56 | 29.8  | 29.9  | 28.4  | 30.1  | 68.8  | 18:32 |